TAIP21 YSTW-YBOK

Flight info

Callsign TAIP21
Flight time 1h 39m
Altitude 7000
Route AM129/N0159F060
Aircraft EC45/L-SDFGRY/C

Departure

Time 2026-04-25 11:43
Airport Tamworth Airport (YSTW)

Arrival

Time 2026-04-25 13:22
Airport Oakey Army Aviation Centre (YBOK)
Time Latitude Longitude Altitude Speed Heading
2026-04-25 11:39 -31.08344 150.84694 1342 ft 0 kts 160°
2026-04-25 11:42 -31.08356 150.84695 1389 ft 3 kts 109°
2026-04-25 11:42 -31.08365 150.84889 1611 ft 37 kts 153°
2026-04-25 11:43 -31.08331 150.85221 1928 ft 58 kts 60°
2026-04-25 11:43 -31.07891 150.85391 2250 ft 77 kts
2026-04-25 11:43 -31.07330 150.85340 2432 ft 83 kts
2026-04-25 11:43 -31.06773 150.85221 2823 ft 79 kts
2026-04-25 11:44 -31.06264 150.85312 3198 ft 72 kts 28°
2026-04-25 11:44 -31.05782 150.85456 3578 ft 70 kts 27°
2026-04-25 11:44 -31.05315 150.85596 3948 ft 70 kts 28°
2026-04-25 11:44 -31.04838 150.85740 4316 ft 72 kts 25°
2026-04-25 11:45 -31.04339 150.85890 4693 ft 76 kts 23°
2026-04-25 11:45 -31.03823 150.86044 5074 ft 77 kts 22°
2026-04-25 11:45 -31.03296 150.86199 5447 ft 79 kts 20°
2026-04-25 11:45 -31.02757 150.86357 5819 ft 80 kts 21°
2026-04-25 11:46 -31.02212 150.86516 6193 ft 82 kts 19°
2026-04-25 11:46 -31.01655 150.86677 6574 ft 83 kts 19°
2026-04-25 11:46 -31.01092 150.86833 6815 ft 83 kts 17°
2026-04-25 11:46 -31.00534 150.86982 6915 ft 83 kts 17°
2026-04-25 11:47 -30.99971 150.87130 6957 ft 83 kts 18°
2026-04-25 11:47 -30.99405 150.87279 6976 ft 83 kts 17°
2026-04-25 11:47 -30.98843 150.87429 6985 ft 83 kts 17°
2026-04-25 11:47 -30.98283 150.87579 6991 ft 83 kts 18°
2026-04-25 11:48 -30.97723 150.87730 6996 ft 83 kts 19°
2026-04-25 11:48 -30.97062 150.87926 6976 ft 116 kts 18°
2026-04-25 11:48 -30.96188 150.88198 6976 ft 142 kts 16°
2026-04-25 11:48 -30.95226 150.88480 7001 ft 141 kts 15°
2026-04-25 11:49 -30.94284 150.88734 6995 ft 138 kts 16°
2026-04-25 11:49 -30.93340 150.88993 6963 ft 140 kts 16°
2026-04-25 11:49 -30.92394 150.89256 6963 ft 140 kts 17°
2026-04-25 11:49 -30.91446 150.89521 6961 ft 140 kts 17°
2026-04-25 11:50 -30.90500 150.89786 6960 ft 140 kts 16°
2026-04-25 11:50 -30.89551 150.90052 6962 ft 141 kts 16°
2026-04-25 11:50 -30.88594 150.90321 6962 ft 142 kts 16°
2026-04-25 11:50 -30.87638 150.90589 6961 ft 141 kts 16°
2026-04-25 11:51 -30.86686 150.90857 6963 ft 141 kts 17°
2026-04-25 11:51 -30.85732 150.91126 6964 ft 141 kts 17°
2026-04-25 11:51 -30.84777 150.91395 6962 ft 142 kts 16°
2026-04-25 11:51 -30.83818 150.91666 6962 ft 142 kts 17°
2026-04-25 11:52 -30.82867 150.91934 6963 ft 142 kts 16°
2026-04-25 11:52 -30.81893 150.92208 6964 ft 142 kts 16°
2026-04-25 11:52 -30.80947 150.92474 6964 ft 142 kts 17°
2026-04-25 11:52 -30.79990 150.92745 6964 ft 142 kts 17°
2026-04-25 11:53 -30.79036 150.93014 6966 ft 141 kts 16°
2026-04-25 11:53 -30.78083 150.93282 6965 ft 141 kts 16°
2026-04-25 11:53 -30.77128 150.93552 6964 ft 141 kts 17°
2026-04-25 11:53 -30.76172 150.93821 6964 ft 141 kts 16°
2026-04-25 11:54 -30.75221 150.94089 6968 ft 140 kts 17°
2026-04-25 11:54 -30.74269 150.94358 6968 ft 141 kts 17°
2026-04-25 11:54 -30.72361 150.94895 6969 ft 143 kts 17°
2026-04-25 11:55 -30.71400 150.95166 6971 ft 142 kts 17°
2026-04-25 11:55 -30.70438 150.95436 6967 ft 142 kts 17°
2026-04-25 11:55 -30.69474 150.95708 6968 ft 143 kts 17°
2026-04-25 11:55 -30.68510 150.95979 6967 ft 143 kts 17°
2026-04-25 11:56 -30.67549 150.96249 6968 ft 142 kts 17°
2026-04-25 11:56 -30.66584 150.96521 6967 ft 143 kts 18°
2026-04-25 11:56 -30.65622 150.96791 6967 ft 142 kts 17°
2026-04-25 11:56 -30.64660 150.97061 6968 ft 142 kts 17°
2026-04-25 11:57 -30.63696 150.97332 6967 ft 143 kts 17°
2026-04-25 11:57 -30.62730 150.97604 6971 ft 143 kts 17°
2026-04-25 11:57 -30.61774 150.97872 6970 ft 143 kts 17°
2026-04-25 11:57 -30.60802 150.98145 6967 ft 144 kts 17°
2026-04-25 11:58 -30.59833 150.98418 6971 ft 143 kts 16°
2026-04-25 11:58 -30.58860 150.98690 6972 ft 144 kts 17°
2026-04-25 11:58 -30.57888 150.98963 6973 ft 143 kts 18°
2026-04-25 11:58 -30.56921 150.99235 6971 ft 143 kts 17°
2026-04-25 11:59 -30.55955 150.99505 6973 ft 143 kts 17°
2026-04-25 11:59 -30.54986 150.99777 6972 ft 144 kts 17°
2026-04-25 11:59 -30.54012 151.00051 6973 ft 143 kts 17°
2026-04-25 12:00 -30.52073 151.00595 6973 ft 143 kts 17°
2026-04-25 12:00 -30.51103 151.00866 6973 ft 144 kts 17°
2026-04-25 12:00 -30.49170 151.01408 6977 ft 145 kts 17°
2026-04-25 12:01 -30.48185 151.01683 6975 ft 146 kts 16°
2026-04-25 12:01 -30.47203 151.01957 6975 ft 145 kts 16°
2026-04-25 12:01 -30.46215 151.02233 6974 ft 146 kts 17°
2026-04-25 12:01 -30.45230 151.02509 6973 ft 145 kts 16°
2026-04-25 12:02 -30.43271 151.03057 6970 ft 145 kts 17°
2026-04-25 12:02 -30.42291 151.03332 6971 ft 145 kts 16°
2026-04-25 12:02 -30.41314 151.03604 6969 ft 145 kts 16°
2026-04-25 12:03 -30.40330 151.03880 6971 ft 146 kts 17°
2026-04-25 12:03 -30.39346 151.04155 6971 ft 145 kts 17°
2026-04-25 12:03 -30.38366 151.04428 6972 ft 144 kts 17°
2026-04-25 12:03 -30.37396 151.04698 6971 ft 143 kts 18°
2026-04-25 12:04 -30.36441 151.04965 6971 ft 142 kts 17°
2026-04-25 12:04 -30.35476 151.05235 6972 ft 143 kts 17°
2026-04-25 12:04 -30.34509 151.05505 6974 ft 143 kts 18°
2026-04-25 12:04 -30.33542 151.05775 6971 ft 142 kts 17°
2026-04-25 12:05 -30.32583 151.06043 6972 ft 141 kts 18°
2026-04-25 12:05 -30.31627 151.06311 6969 ft 141 kts 18°
2026-04-25 12:05 -30.30670 151.06578 6971 ft 141 kts 18°
2026-04-25 12:05 -30.29713 151.06845 6970 ft 142 kts 17°
2026-04-25 12:06 -30.28752 151.07113 6971 ft 142 kts 18°
2026-04-25 12:06 -30.27796 151.07380 6973 ft 141 kts 17°
2026-04-25 12:06 -30.26841 151.07647 6972 ft 141 kts 17°
2026-04-25 12:06 -30.25887 151.07913 6975 ft 141 kts 18°
2026-04-25 12:07 -30.24927 151.08181 6967 ft 142 kts 17°
2026-04-25 12:07 -30.23959 151.08451 6968 ft 143 kts 17°
2026-04-25 12:07 -30.22988 151.08722 6967 ft 144 kts 18°
2026-04-25 12:07 -30.22014 151.08993 6967 ft 144 kts 17°
2026-04-25 12:08 -30.21044 151.09263 6969 ft 143 kts 17°
2026-04-25 12:08 -30.20071 151.09534 6963 ft 144 kts 17°
2026-04-25 12:08 -30.19098 151.09804 6965 ft 143 kts 17°
2026-04-25 12:08 -30.18126 151.10075 6965 ft 144 kts 17°
2026-04-25 12:09 -30.17152 151.10346 6975 ft 144 kts 17°
2026-04-25 12:09 -30.16176 151.10617 6974 ft 144 kts 17°
2026-04-25 12:09 -30.15204 151.10888 6976 ft 144 kts 17°
2026-04-25 12:09 -30.14229 151.11159 6977 ft 144 kts 17°
2026-04-25 12:10 -30.13258 151.11428 6973 ft 144 kts 17°
2026-04-25 12:10 -30.12289 151.11698 6974 ft 143 kts 17°
2026-04-25 12:10 -30.11317 151.11969 6981 ft 144 kts 17°
2026-04-25 12:10 -30.10339 151.12240 6977 ft 144 kts 17°
2026-04-25 12:11 -30.09362 151.12511 6973 ft 144 kts 17°
2026-04-25 12:11 -30.08387 151.12782 6971 ft 145 kts 17°
2026-04-25 12:11 -30.07410 151.13053 6969 ft 144 kts 17°
2026-04-25 12:11 -30.06438 151.13323 6970 ft 144 kts 17°
2026-04-25 12:12 -30.05464 151.13594 6969 ft 143 kts 17°
2026-04-25 12:12 -30.04821 151.13772 6969 ft 143 kts 17°
2026-04-25 12:12 -30.03535 151.14130 6970 ft 143 kts 17°
2026-04-25 12:12 -30.02562 151.14400 6972 ft 143 kts 17°
2026-04-25 12:13 -30.01592 151.14669 6970 ft 143 kts 17°
2026-04-25 12:13 -30.00619 151.14938 6972 ft 144 kts 18°
2026-04-25 12:13 -29.99641 151.15209 6972 ft 145 kts 17°
2026-04-25 12:13 -29.98663 151.15480 6973 ft 144 kts 17°
2026-04-25 12:14 -29.97686 151.15751 6966 ft 144 kts 18°
2026-04-25 12:14 -29.96710 151.16021 6968 ft 144 kts 17°
2026-04-25 12:14 -29.95733 151.16292 6966 ft 144 kts 17°
2026-04-25 12:14 -29.94758 151.16562 6968 ft 144 kts 17°
2026-04-25 12:15 -29.93781 151.16832 6970 ft 144 kts 17°
2026-04-25 12:15 -29.92805 151.17102 6969 ft 144 kts 17°
2026-04-25 12:15 -29.91828 151.17373 6971 ft 145 kts 17°
2026-04-25 12:15 -29.90843 151.17645 6969 ft 145 kts 17°
2026-04-25 12:16 -29.89863 151.17916 6966 ft 145 kts 17°
2026-04-25 12:16 -29.88882 151.18187 6965 ft 145 kts 18°
2026-04-25 12:16 -29.87902 151.18458 6962 ft 145 kts 18°
2026-04-25 12:16 -29.87253 151.18638 6961 ft 145 kts 17°
2026-04-25 12:17 -29.86273 151.18909 6961 ft 145 kts 17°
2026-04-25 12:17 -29.85293 151.19180 6962 ft 145 kts 17°
2026-04-25 12:17 -29.84309 151.19451 6965 ft 145 kts 17°
2026-04-25 12:17 -29.83328 151.19722 6961 ft 145 kts 17°
2026-04-25 12:18 -29.82348 151.19994 6963 ft 145 kts 17°
2026-04-25 12:18 -29.81372 151.20263 6965 ft 144 kts 17°
2026-04-25 12:18 -29.80401 151.20531 6962 ft 144 kts 17°
2026-04-25 12:18 -29.79426 151.20801 6965 ft 144 kts 17°
2026-04-25 12:19 -29.77797 151.21251 6957 ft 145 kts 16°
2026-04-25 12:19 -29.76481 151.21614 6957 ft 145 kts 16°
2026-04-25 12:19 -29.75496 151.21885 6965 ft 145 kts 16°
2026-04-25 12:20 -29.74513 151.22156 6961 ft 145 kts 16°
2026-04-25 12:20 -29.73534 151.22426 6965 ft 144 kts 16°
2026-04-25 12:20 -29.72561 151.22695 6960 ft 144 kts 16°
2026-04-25 12:20 -29.71596 151.22961 6963 ft 145 kts 16°
2026-04-25 12:21 -29.70615 151.23231 6968 ft 145 kts 16°
2026-04-25 12:21 -29.69635 151.23502 6961 ft 144 kts 16°
2026-04-25 12:21 -29.68666 151.23769 6958 ft 143 kts 16°
2026-04-25 12:21 -29.67697 151.24036 6963 ft 143 kts 16°
2026-04-25 12:22 -29.66724 151.24304 6963 ft 144 kts 16°
2026-04-25 12:22 -29.65744 151.24574 6959 ft 145 kts 16°
2026-04-25 12:22 -29.64763 151.24844 6958 ft 145 kts 16°
2026-04-25 12:22 -29.63784 151.25113 6959 ft 144 kts 16°
2026-04-25 12:23 -29.62808 151.25382 6964 ft 144 kts 16°
2026-04-25 12:23 -29.61829 151.25651 6961 ft 145 kts 16°
2026-04-25 12:23 -29.60849 151.25920 6960 ft 145 kts 16°
2026-04-25 12:23 -29.59867 151.26190 6949 ft 145 kts 16°
2026-04-25 12:24 -29.58883 151.26461 6955 ft 145 kts 16°
2026-04-25 12:24 -29.57902 151.26731 6954 ft 144 kts 16°
2026-04-25 12:24 -29.56925 151.26999 6956 ft 144 kts 16°
2026-04-25 12:24 -29.55951 151.27267 6953 ft 144 kts 16°
2026-04-25 12:25 -29.54975 151.27536 6957 ft 144 kts 17°
2026-04-25 12:25 -29.53992 151.27806 6954 ft 146 kts 18°
2026-04-25 12:25 -29.53003 151.28078 6956 ft 146 kts 17°
2026-04-25 12:25 -29.52010 151.28349 6953 ft 147 kts 16°
2026-04-25 12:26 -29.51016 151.28622 6955 ft 147 kts 18°
2026-04-25 12:26 -29.50025 151.28894 6951 ft 146 kts 17°
2026-04-25 12:26 -29.49038 151.29165 6948 ft 146 kts 17°
2026-04-25 12:26 -29.48050 151.29436 6949 ft 146 kts 18°
2026-04-25 12:27 -29.47073 151.29704 6952 ft 146 kts 18°
2026-04-25 12:27 -29.46083 151.29975 6950 ft 146 kts 17°
2026-04-25 12:27 -29.45094 151.30247 6949 ft 146 kts 17°
2026-04-25 12:27 -29.44101 151.30519 6950 ft 147 kts 17°
2026-04-25 12:28 -29.43110 151.30790 6949 ft 146 kts 17°
2026-04-25 12:28 -29.42122 151.31061 6949 ft 146 kts 18°
2026-04-25 12:28 -29.41129 151.31333 6945 ft 146 kts 18°
2026-04-25 12:28 -29.40141 151.31603 6943 ft 146 kts 18°
2026-04-25 12:29 -29.39151 151.31875 6943 ft 147 kts 18°
2026-04-25 12:29 -29.38154 151.32148 6950 ft 147 kts 18°
2026-04-25 12:29 -29.37161 151.32419 6943 ft 147 kts 17°
2026-04-25 12:29 -29.36167 151.32692 6951 ft 147 kts 17°
2026-04-25 12:30 -29.35172 151.32963 6946 ft 147 kts 17°
2026-04-25 12:30 -29.34180 151.33234 6943 ft 146 kts 18°
2026-04-25 12:30 -29.33189 151.33506 6942 ft 147 kts 18°
2026-04-25 12:30 -29.32204 151.33774 6965 ft 144 kts 21°
2026-04-25 12:31 -29.31235 151.34037 6958 ft 142 kts 22°
2026-04-25 12:31 -29.30275 151.34299 6952 ft 142 kts 22°
2026-04-25 12:31 -29.29315 151.34562 6949 ft 142 kts 22°
2026-04-25 12:31 -29.28356 151.34824 6949 ft 142 kts 22°
2026-04-25 12:32 -29.27400 151.35086 6950 ft 141 kts 22°
2026-04-25 12:32 -29.26445 151.35347 6950 ft 141 kts 22°
2026-04-25 12:32 -29.25499 151.35606 6950 ft 142 kts 21°
2026-04-25 12:32 -29.24528 151.35871 6948 ft 144 kts 21°
2026-04-25 12:33 -29.23556 151.36136 6948 ft 143 kts 21°
2026-04-25 12:33 -29.22588 151.36399 6949 ft 142 kts 22°
2026-04-25 12:33 -29.21624 151.36662 6945 ft 142 kts 22°
2026-04-25 12:33 -29.20658 151.36926 6946 ft 143 kts 22°
2026-04-25 12:34 -29.19691 151.37190 6944 ft 142 kts 22°
2026-04-25 12:34 -29.18728 151.37453 6944 ft 142 kts 22°
2026-04-25 12:34 -29.17772 151.37713 6942 ft 141 kts 22°
2026-04-25 12:34 -29.17141 151.37885 6942 ft 141 kts 22°
2026-04-25 12:35 -29.15863 151.38235 6943 ft 141 kts 21°
2026-04-25 12:35 -29.14906 151.38496 6942 ft 141 kts 22°
2026-04-25 12:35 -29.13959 151.38754 6944 ft 139 kts 22°
2026-04-25 12:35 -29.13020 151.39010 6944 ft 139 kts 22°
2026-04-25 12:36 -29.12074 151.39269 6943 ft 140 kts 21°
2026-04-25 12:36 -29.11127 151.39527 6943 ft 140 kts 22°
2026-04-25 12:36 -29.10184 151.39783 6943 ft 139 kts 22°
2026-04-25 12:36 -29.09238 151.40042 6944 ft 140 kts 22°
2026-04-25 12:37 -29.08290 151.40300 6944 ft 140 kts 21°
2026-04-25 12:37 -29.07334 151.40560 6949 ft 142 kts 22°
2026-04-25 12:37 -29.06377 151.40821 6945 ft 141 kts 22°
2026-04-25 12:37 -29.05422 151.41080 6945 ft 141 kts 22°
2026-04-25 12:38 -29.04469 151.41339 6943 ft 141 kts 22°
2026-04-25 12:38 -29.03516 151.41598 6944 ft 140 kts 21°
2026-04-25 12:38 -29.02566 151.41856 6942 ft 140 kts 22°
2026-04-25 12:38 -29.01612 151.42116 6940 ft 141 kts 22°
2026-04-25 12:39 -29.00653 151.42376 6940 ft 141 kts 21°
2026-04-25 12:39 -28.99695 151.42636 6941 ft 142 kts 22°
2026-04-25 12:39 -28.98735 151.42897 6941 ft 142 kts 22°
2026-04-25 12:39 -28.97772 151.43158 6941 ft 143 kts 22°
2026-04-25 12:40 -28.96806 151.43420 6941 ft 142 kts 22°
2026-04-25 12:40 -28.95842 151.43681 6941 ft 143 kts 22°
2026-04-25 12:40 -28.94872 151.43944 6939 ft 144 kts 22°
2026-04-25 12:40 -28.93917 151.44203 6941 ft 143 kts 22°
2026-04-25 12:41 -28.92947 151.44465 6933 ft 143 kts 22°
2026-04-25 12:41 -28.91977 151.44728 6935 ft 143 kts 22°
2026-04-25 12:41 -28.91009 151.44991 6935 ft 142 kts 22°
2026-04-25 12:41 -28.90045 151.45252 6935 ft 142 kts 22°
2026-04-25 12:42 -28.89086 151.45513 6937 ft 142 kts 22°
2026-04-25 12:42 -28.88450 151.45685 6938 ft 143 kts 22°
2026-04-25 12:42 -28.87156 151.46036 6938 ft 143 kts 22°
2026-04-25 12:42 -28.86190 151.46298 6939 ft 143 kts 22°
2026-04-25 12:43 -28.85220 151.46560 6938 ft 143 kts 21°
2026-04-25 12:43 -28.84249 151.46823 6937 ft 143 kts 22°
2026-04-25 12:43 -28.82316 151.47347 6937 ft 142 kts 21°
2026-04-25 12:44 -28.81356 151.47607 6936 ft 142 kts 21°
2026-04-25 12:44 -28.80405 151.47865 6936 ft 142 kts 21°
2026-04-25 12:44 -28.78470 151.48388 6935 ft 143 kts 21°
2026-04-25 12:45 -28.77507 151.48648 6936 ft 142 kts 21°
2026-04-25 12:45 -28.76543 151.48909 6935 ft 142 kts 20°
2026-04-25 12:45 -28.74618 151.49416 6935 ft 143 kts 18°
2026-04-25 12:46 -28.73637 151.49620 6933 ft 143 kts 17°
2026-04-25 12:46 -28.72654 151.49811 6932 ft 144 kts 17°
2026-04-25 12:46 -28.71667 151.49997 6933 ft 143 kts 17°
2026-04-25 12:46 -28.70680 151.50181 6933 ft 144 kts 17°
2026-04-25 12:47 -28.69690 151.50364 6932 ft 143 kts 17°
2026-04-25 12:47 -28.68714 151.50544 6932 ft 142 kts 17°
2026-04-25 12:47 -28.67745 151.50723 6931 ft 141 kts 17°
2026-04-25 12:47 -28.66795 151.50899 6933 ft 140 kts 17°
2026-04-25 12:48 -28.65829 151.51076 6932 ft 141 kts 16°
2026-04-25 12:48 -28.64858 151.51255 6932 ft 141 kts 17°
2026-04-25 12:48 -28.63889 151.51433 6933 ft 141 kts 17°
2026-04-25 12:48 -28.62916 151.51611 6932 ft 142 kts 16°
2026-04-25 12:49 -28.61933 151.51791 6931 ft 143 kts 17°
2026-04-25 12:49 -28.60949 151.51970 6929 ft 143 kts 16°
2026-04-25 12:49 -28.59964 151.52149 6928 ft 144 kts 17°
2026-04-25 12:49 -28.58977 151.52330 6932 ft 143 kts 16°
2026-04-25 12:50 -28.57999 151.52507 6932 ft 142 kts 15°
2026-04-25 12:50 -28.57026 151.52683 6931 ft 141 kts 15°
2026-04-25 12:50 -28.56058 151.52860 6930 ft 141 kts 15°
2026-04-25 12:50 -28.55092 151.53036 6930 ft 141 kts 15°
2026-04-25 12:51 -28.54125 151.53212 6929 ft 141 kts 15°
2026-04-25 12:51 -28.53155 151.53389 6927 ft 141 kts 15°
2026-04-25 12:51 -28.52184 151.53566 6927 ft 141 kts 15°
2026-04-25 12:51 -28.51216 151.53743 6927 ft 141 kts 15°
2026-04-25 12:52 -28.50245 151.53919 6927 ft 142 kts 15°
2026-04-25 12:52 -28.49265 151.54098 6927 ft 143 kts 15°
2026-04-25 12:52 -28.48286 151.54275 6926 ft 143 kts 15°
2026-04-25 12:52 -28.47306 151.54454 6927 ft 143 kts 15°
2026-04-25 12:53 -28.46326 151.54631 6926 ft 143 kts 15°
2026-04-25 12:53 -28.45349 151.54809 6926 ft 142 kts 15°
2026-04-25 12:53 -28.44372 151.54986 6928 ft 142 kts 15°
2026-04-25 12:53 -28.43395 151.55164 6927 ft 142 kts 15°
2026-04-25 12:54 -28.42423 151.55341 6928 ft 142 kts 15°
2026-04-25 12:54 -28.41449 151.55518 6927 ft 142 kts 15°
2026-04-25 12:54 -28.40477 151.55695 6927 ft 141 kts 15°
2026-04-25 12:54 -28.39509 151.55871 6928 ft 141 kts 15°
2026-04-25 12:55 -28.38554 151.56045 6926 ft 141 kts 15°
2026-04-25 12:55 -28.38228 151.56104 6927 ft 141 kts 15°
2026-04-25 12:55 -28.36616 151.56398 6926 ft 141 kts 15°
2026-04-25 12:55 -28.35649 151.56573 6927 ft 141 kts 15°
2026-04-25 12:56 -28.34677 151.56750 6927 ft 141 kts 15°
2026-04-25 12:56 -28.33707 151.56926 6933 ft 141 kts 16°
2026-04-25 12:56 -28.32743 151.57100 6931 ft 140 kts 16°
2026-04-25 12:56 -28.31781 151.57274 6929 ft 139 kts 16°
2026-04-25 12:57 -28.30821 151.57448 6928 ft 140 kts 16°
2026-04-25 12:57 -28.29858 151.57623 6928 ft 140 kts 16°
2026-04-25 12:57 -28.28898 151.57797 6928 ft 140 kts 16°
2026-04-25 12:57 -28.27937 151.57971 6928 ft 140 kts 16°
2026-04-25 12:58 -28.26978 151.58145 6927 ft 139 kts 16°
2026-04-25 12:58 -28.26024 151.58318 6927 ft 139 kts 16°
2026-04-25 12:58 -28.25391 151.58433 6927 ft 139 kts 16°
2026-04-25 12:58 -28.24439 151.58606 6928 ft 138 kts 17°
2026-04-25 12:59 -28.23487 151.58779 6922 ft 139 kts 16°
2026-04-25 12:59 -28.22533 151.58952 6922 ft 139 kts 16°
2026-04-25 12:59 -28.21579 151.59125 6921 ft 139 kts 16°
2026-04-25 12:59 -28.20620 151.59298 6921 ft 140 kts 16°
2026-04-25 13:00 -28.19655 151.59473 6922 ft 140 kts 16°
2026-04-25 13:00 -28.19016 151.59588 6923 ft 140 kts 16°
2026-04-25 13:00 -28.17728 151.59821 6924 ft 140 kts 16°
2026-04-25 13:00 -28.16767 151.59994 6924 ft 140 kts 16°
2026-04-25 13:01 -28.15806 151.60168 6924 ft 140 kts 16°
2026-04-25 13:01 -28.14846 151.60341 6923 ft 140 kts 16°
2026-04-25 13:01 -28.13883 151.60516 6919 ft 140 kts 16°
2026-04-25 13:01 -28.12918 151.60691 6918 ft 141 kts 16°
2026-04-25 13:02 -28.11952 151.60865 6919 ft 141 kts 16°
2026-04-25 13:02 -28.10988 151.61039 6919 ft 140 kts 16°
2026-04-25 13:02 -28.10024 151.61214 6918 ft 140 kts 16°
2026-04-25 13:02 -28.09060 151.61388 6919 ft 140 kts 16°
2026-04-25 13:03 -28.08095 151.61563 6920 ft 140 kts 17°
2026-04-25 13:03 -28.07148 151.61734 6920 ft 139 kts 17°
2026-04-25 13:03 -28.06186 151.61908 6919 ft 140 kts 17°
2026-04-25 13:03 -28.05212 151.62084 6919 ft 140 kts 17°
2026-04-25 13:04 -28.04262 151.62256 6919 ft 141 kts 17°
2026-04-25 13:04 -28.03290 151.62431 6918 ft 141 kts 17°
2026-04-25 13:04 -28.02321 151.62606 6919 ft 142 kts 17°
2026-04-25 13:04 -28.01344 151.62781 6918 ft 142 kts 17°
2026-04-25 13:05 -28.00371 151.62957 6919 ft 141 kts 17°
2026-04-25 13:05 -27.99404 151.63131 6923 ft 141 kts 18°
2026-04-25 13:05 -27.98433 151.63306 6920 ft 141 kts 18°
2026-04-25 13:05 -27.97460 151.63481 6919 ft 141 kts 18°
2026-04-25 13:06 -27.96492 151.63655 6915 ft 141 kts 18°
2026-04-25 13:06 -27.95524 151.63830 6915 ft 141 kts 18°
2026-04-25 13:06 -27.94557 151.64005 6916 ft 141 kts 18°
2026-04-25 13:06 -27.93589 151.64180 6916 ft 141 kts 18°
2026-04-25 13:07 -27.92622 151.64354 6916 ft 141 kts 18°
2026-04-25 13:07 -27.91652 151.64529 6915 ft 141 kts 18°
2026-04-25 13:07 -27.90685 151.64703 6917 ft 140 kts 18°
2026-04-25 13:07 -27.89734 151.64875 6916 ft 140 kts 18°
2026-04-25 13:08 -27.88769 151.65049 6918 ft 141 kts 18°
2026-04-25 13:08 -27.87804 151.65223 6917 ft 141 kts 18°
2026-04-25 13:08 -27.86835 151.65398 6916 ft 141 kts 18°
2026-04-25 13:08 -27.85864 151.65572 6918 ft 141 kts 18°
2026-04-25 13:09 -27.84898 151.65746 6915 ft 141 kts 18°
2026-04-25 13:09 -27.83933 151.65919 6914 ft 141 kts 18°
2026-04-25 13:09 -27.82963 151.66093 6918 ft 141 kts 19°
2026-04-25 13:09 -27.81988 151.66269 6914 ft 143 kts 19°
2026-04-25 13:10 -27.81006 151.66445 6914 ft 143 kts 19°
2026-04-25 13:10 -27.80028 151.66620 6912 ft 142 kts 19°
2026-04-25 13:10 -27.79050 151.66795 6913 ft 142 kts 19°
2026-04-25 13:10 -27.78074 151.66970 6915 ft 142 kts 20°
2026-04-25 13:11 -27.77098 151.67146 6917 ft 142 kts 19°
2026-04-25 13:11 -27.76121 151.67321 6917 ft 141 kts 20°
2026-04-25 13:11 -27.75151 151.67496 6922 ft 142 kts 19°
2026-04-25 13:11 -27.74171 151.67671 6916 ft 142 kts 19°
2026-04-25 13:12 -27.73194 151.67847 6914 ft 142 kts 19°
2026-04-25 13:12 -27.72216 151.68022 6917 ft 142 kts 19°
2026-04-25 13:12 -27.71236 151.68198 6918 ft 143 kts 19°
2026-04-25 13:12 -27.70583 151.68315 6915 ft 144 kts 19°
2026-04-25 13:13 -27.69261 151.68552 6916 ft 144 kts 19°
2026-04-25 13:13 -27.68274 151.68729 6916 ft 143 kts 19°
2026-04-25 13:13 -27.67288 151.68905 6917 ft 144 kts 19°
2026-04-25 13:13 -27.66310 151.69081 6917 ft 145 kts 19°
2026-04-25 13:14 -27.65317 151.69258 6917 ft 144 kts 19°
2026-04-25 13:14 -27.64331 151.69435 6917 ft 143 kts 19°
2026-04-25 13:14 -27.63347 151.69611 6917 ft 143 kts 19°
2026-04-25 13:14 -27.62366 151.69787 6918 ft 143 kts 19°
2026-04-25 13:15 -27.61380 151.69964 6917 ft 144 kts 19°
2026-04-25 13:15 -27.60391 151.70141 6917 ft 144 kts 19°
2026-04-25 13:15 -27.59399 151.70307 6644 ft 143 kts 18°
2026-04-25 13:15 -27.58423 151.70457 6256 ft 141 kts 19°
2026-04-25 13:16 -27.57455 151.70611 5877 ft 140 kts 20°
2026-04-25 13:16 -27.56491 151.70770 5502 ft 139 kts 20°
2026-04-25 13:16 -27.55534 151.70918 5132 ft 139 kts 16°
2026-04-25 13:16 -27.54553 151.70840 4746 ft 147 kts 358°
2026-04-25 13:17 -27.53561 151.70515 4486 ft 150 kts 354°
2026-04-25 13:17 -27.52556 151.70170 4304 ft 152 kts 352°
2026-04-25 13:17 -27.51554 151.69821 3933 ft 150 kts 352°
2026-04-25 13:17 -27.50571 151.69471 3555 ft 147 kts 352°
2026-04-25 13:18 -27.49605 151.69136 3182 ft 147 kts 351°
2026-04-25 13:18 -27.48639 151.68818 2802 ft 143 kts 351°
2026-04-25 13:18 -27.47679 151.68541 2525 ft 142 kts 352°
2026-04-25 13:18 -27.46711 151.68298 2405 ft 141 kts 352°
2026-04-25 13:19 -27.45757 151.68088 2353 ft 139 kts 353°
2026-04-25 13:19 -27.44809 151.67897 2333 ft 138 kts 353°
2026-04-25 13:19 -27.43901 151.67709 2341 ft 122 kts 352°
2026-04-25 13:19 -27.43391 151.67597 2332 ft 103 kts 359°
2026-04-25 13:20 -27.42536 151.67594 2313 ft 91 kts
2026-04-25 13:20 -27.41908 151.67640 2155 ft 89 kts
2026-04-25 13:20 -27.41303 151.67684 1953 ft 86 kts
2026-04-25 13:20 -27.40705 151.67754 1884 ft 82 kts 27°
2026-04-25 13:21 -27.40436 151.68263 1948 ft 76 kts 96°
2026-04-25 13:21 -27.40525 151.68851 2065 ft 76 kts 110°
2026-04-25 13:21 -27.40656 151.69475 2072 ft 90 kts 104°
2026-04-25 13:21 -27.40771 151.70187 1882 ft 86 kts 100°
2026-04-25 13:22 -27.40852 151.70774 1805 ft 67 kts 103°
2026-04-25 13:22 -27.40921 151.71233 1732 ft 52 kts 103°
2026-04-25 13:22 -27.40962 151.71601 1709 ft 45 kts 103°
2026-04-25 13:23 -27.41020 151.72231 1541 ft 30 kts 107°
2026-04-25 13:23 -27.41030 151.72427 1456 ft 19 kts 108°
2026-04-25 13:23 -27.41066 151.72544 1431 ft 20 kts 109°
2026-04-25 13:23 -27.41111 151.72781 1420 ft 39 kts 107°
2026-04-25 13:24 -27.41153 151.73037 1378 ft 25 kts 108°
2026-04-25 13:24 -27.41173 151.73171 1358 ft 8 kts 108°
2026-04-25 13:24 -27.41181 151.73221 1357 ft 9 kts 103°
2026-04-25 13:24 -27.41187 151.73263 1351 ft 6 kts 105°
2026-04-25 13:25 -27.41224 151.73290 1360 ft 14 kts 171°
2026-04-25 13:25 -27.41275 151.73298 1346 ft 8 kts 131°
2026-04-25 13:25 -27.41300 151.73318 1336 ft 0 kts 186°
2026-04-25 13:25 -27.41299 151.73318 1336 ft 0 kts 185°